| time (UTC) | temp F | wind direction | speed MPH | gust MPH | rain 1hr in | rain 24hr in | rain mn in | humidity % | barometer mb |
| 20260508173027 | 58 | 245 | 3.0 | 6.0 | 0.00 | 0.00 | 0.00 | 66 | 1013.1 |
| 20260508172019 | 58 | 258 | 3.0 | 7.0 | 0.00 | 0.00 | 0.00 | 66 | 1013.1 |
| 20260508171023 | 59 | 357 | 3.0 | 4.0 | 0.00 | 0.00 | 0.00 | 65 | 1013.2 |
| 20260508170022 | 58 | 262 | 4.0 | 7.0 | 0.00 | 0.00 | 0.00 | 66 | 1013.4 |
| 20260508165020 | 57 | 307 | 2.0 | 5.0 | 0.00 | 0.00 | 0.00 | 66 | 1013.4 |
| 20260508164018 | 57 | 318 | 2.0 | 4.0 | 0.00 | 0.00 | 0.00 | 68 | 1013.5 |
| 20260508163016 | 56 | 349 | 1.0 | 4.0 | 0.00 | 0.00 | 0.00 | 69 | 1013.6 |
| 20260508162015 | 54 | 248 | 2.0 | 3.0 | 0.00 | 0.00 | 0.00 | 71 | 1013.9 |
| 20260508161031 | 53 | 299 | 2.0 | 4.0 | 0.00 | 0.00 | 0.00 | 73 | 1013.9 |
| 20260508160017 | 53 | 296 | 0.0 | 2.0 | 0.00 | 0.00 | 0.00 | 73 | 1013.9 |
| 20260508155022 | 53 | 4 | 2.0 | 4.0 | 0.00 | 0.00 | 0.00 | 74 | 1013.9 |
| 20260508154046 | 53 | 5 | 2.0 | 4.0 | 0.00 | 0.00 | 0.00 | 74 | 1013.9 |
| 20260508153030 | 52 | 18 | 2.0 | 3.0 | 0.00 | 0.00 | 0.00 | 74 | 1013.9 |
| 20260508152016 | 52 | 9 | 3.0 | 4.0 | 0.00 | 0.00 | 0.00 | 75 | 1013.8 |
| 20260508151021 | 53 | 12 | 2.0 | 3.0 | 0.00 | 0.00 | 0.00 | 76 | 1013.8 |
| 20260508150026 | 53 | 350 | 2.0 | 3.0 | 0.00 | 0.00 | 0.00 | 75 | 1013.8 |
| 20260508145029 | 53 | 30 | 2.0 | 4.0 | 0.00 | 0.00 | 0.00 | 76 | 1013.6 |
| 20260508144035 | 52 | 279 | 2.0 | 4.0 | 0.00 | 0.00 | 0.00 | 76 | 1013.7 |
| 20260508143020 | 52 | 312 | 1.0 | 4.0 | 0.00 | 0.00 | 0.00 | 80 | 1013.8 |
| 20260508142044 | 50 | 309 | 1.0 | 2.0 | 0.00 | 0.00 | 0.00 | 82 | 1013.9 |
| 20260508141028 | 49 | 45 | 0.0 | 1.0 | 0.00 | 0.00 | 0.00 | 86 | 1013.9 |
| 20260508140032 | 48 | 293 | 0.0 | 2.0 | 0.00 | 0.00 | 0.00 | 86 | 1014.1 |
| 20260508135019 | 48 | 358 | 3.0 | 4.0 | 0.00 | 0.00 | 0.00 | 84 | 1014.0 |
| 20260508134023 | 49 | 7 | 2.0 | 3.0 | 0.00 | 0.00 | 0.00 | 83 | 1013.9 |
| 20260508133027 | 49 | 14 | 2.0 | 3.0 | 0.00 | 0.00 | 0.00 | 82 | 1013.9 |
| 20260508132032 | 49 | 5 | 4.0 | 5.0 | 0.00 | 0.00 | 0.00 | 81 | 1013.9 |
| 20260508131018 | 50 | 294 | 3.0 | 5.0 | 0.00 | 0.00 | 0.00 | 79 | 1013.8 |
| 20260508130023 | 50 | 237 | 2.0 | 4.0 | 0.00 | 0.00 | 0.00 | 78 | 1013.6 |
| 20260508125027 | 49 | 236 | 2.0 | 3.0 | 0.00 | 0.00 | 0.00 | 80 | 1013.6 |
| 20260508124031 | 49 | 239 | 3.0 | 3.0 | 0.00 | 0.00 | 0.00 | 80 | 1013.6 |
| 20260508123017 | 48 | 248 | 2.0 | 3.0 | 0.00 | 0.00 | 0.00 | 81 | 1013.6 |
| 20260508122021 | 47 | 227 | 3.0 | 4.0 | 0.00 | 0.00 | 0.00 | 82 | 1013.4 |
| 20260508121026 | 46 | 219 | 3.0 | 4.0 | 0.00 | 0.00 | 0.00 | 82 | 1013.6 |
| 20260508120048 | 45 | 200 | 3.0 | 4.0 | 0.00 | 0.00 | 0.00 | 83 | 1013.4 |
| 20260508115026 | 45 | 204 | 2.0 | 3.0 | 0.00 | 0.00 | 0.00 | 83 | 1013.4 |
| 20260508114018 | 44 | 203 | 3.0 | 4.0 | 0.00 | 0.00 | 0.00 | 84 | 1013.4 |
| 20260508113023 | 44 | 197 | 3.0 | 3.0 | 0.00 | 0.00 | 0.00 | 84 | 1013.4 |
| 20260508112018 | 43 | 203 | 3.0 | 4.0 | 0.00 | 0.00 | 0.00 | 85 | 1013.2 |
| 20260508111016 | 43 | 199 | 2.0 | 3.0 | 0.00 | 0.00 | 0.00 | 86 | 1013.1 |
| 20260508110015 | 42 | 167 | 0.0 | 2.0 | 0.00 | 0.00 | 0.00 | 86 | 1012.9 |
| 20260508105019 | 42 | 0.0 | 0.0 | 0.00 | 0.00 | 0.00 | 87 | 1012.9 | |
| 20260508104043 | 42 | 129 | 1.0 | 3.0 | 0.00 | 0.00 | 0.00 | 86 | 1012.9 |
| 20260508103027 | 42 | 199 | 2.0 | 3.0 | 0.00 | 0.00 | 0.00 | 85 | 1012.9 |
| 20260508102032 | 42 | 193 | 2.0 | 2.0 | 0.00 | 0.00 | 0.00 | 85 | 1012.9 |
| 20260508101018 | 42 | 202 | 2.0 | 3.0 | 0.00 | 0.00 | 0.00 | 84 | 1013.0 |
| 20260508100022 | 42 | 192 | 3.0 | 3.0 | 0.00 | 0.00 | 0.00 | 84 | 1012.9 |
| 20260508095026 | 43 | 180 | 2.0 | 3.0 | 0.00 | 0.00 | 0.00 | 83 | 1012.9 |
| 20260508094031 | 43 | 186 | 3.0 | 3.0 | 0.00 | 0.00 | 0.00 | 82 | 1012.9 |
| 20260508093017 | 43 | 194 | 3.0 | 4.0 | 0.00 | 0.00 | 0.00 | 81 | 1012.9 |
| 20260508092021 | 43 | 207 | 3.0 | 4.0 | 0.00 | 0.00 | 0.00 | 81 | 1012.9 |
| 20260508091026 | 43 | 206 | 5.0 | 5.0 | 0.00 | 0.00 | 0.00 | 80 | 1013.0 |
| 20260508090030 | 43 | 206 | 5.0 | 5.0 | 0.00 | 0.00 | 0.00 | 80 | 1012.9 |
| 20260508085016 | 43 | 185 | 4.0 | 5.0 | 0.00 | 0.00 | 0.00 | 79 | 1012.9 |
| 20260508084020 | 43 | 189 | 4.0 | 6.0 | 0.00 | 0.00 | 0.00 | 79 | 1012.9 |
| 20260508083025 | 43 | 196 | 5.0 | 6.0 | 0.00 | 0.00 | 0.00 | 78 | 1012.9 |
| 20260508082029 | 43 | 196 | 4.0 | 5.0 | 0.00 | 0.00 | 0.00 | 77 | 1012.9 |
| 20260508081016 | 44 | 189 | 4.0 | 5.0 | 0.00 | 0.00 | 0.00 | 77 | 1012.9 |
| 20260508080020 | 44 | 188 | 4.0 | 4.0 | 0.00 | 0.00 | 0.00 | 76 | 1012.9 |
| 20260508075024 | 44 | 181 | 4.0 | 4.0 | 0.00 | 0.00 | 0.00 | 77 | 1012.9 |
| 20260508074029 | 44 | 182 | 4.0 | 4.0 | 0.00 | 0.00 | 0.00 | 75 | 1012.9 |
| 20260508073015 | 43 | 185 | 4.0 | 4.0 | 0.00 | 0.00 | 0.00 | 77 | 1012.9 |
| 20260508072019 | 44 | 180 | 4.0 | 5.0 | 0.00 | 0.00 | 0.00 | 74 | 1013.0 |
| 20260508071024 | 43 | 176 | 2.0 | 3.0 | 0.00 | 0.00 | 0.00 | 75 | 1013.1 |
| 20260508070027 | 43 | 187 | 3.0 | 4.0 | 0.00 | 0.00 | 0.00 | 75 | 1013.2 |
| 20260508065032 | 43 | 179 | 3.0 | 4.0 | 0.00 | 0.00 | 0.00 | 76 | 1013.3 |
| 20260508064018 | 43 | 0.0 | 0.0 | 0.00 | 0.00 | 0.00 | 78 | 1013.4 | |
| 20260508063022 | 43 | 189 | 2.0 | 3.0 | 0.00 | 0.00 | 0.00 | 77 | 1013.4 |
| 20260508062047 | 42 | 184 | 2.0 | 3.0 | 0.00 | 0.00 | 0.00 | 77 | 1013.6 |
| 20260508061105 | 42 | 190 | 3.0 | 3.0 | 0.00 | 0.00 | 0.00 | 79 | 1013.6 |
| 20260508060017 | 42 | 197 | 3.0 | 3.0 | 0.00 | 0.00 | 0.00 | 79 | 1013.6 |
| 20260508055021 | 43 | 171 | 2.0 | 3.0 | 0.00 | 0.00 | 0.00 | 74 | 1013.6 |
| 20260508054020 | 43 | 185 | 2.0 | 3.0 | 0.00 | 0.00 | 0.00 | 74 | 1013.8 |
| 20260508053017 | 44 | 211 | 3.0 | 4.0 | 0.00 | 0.00 | 0.00 | 74 | 1013.9 |
| 20260508052016 | 44 | 203 | 4.0 | 5.0 | 0.00 | 0.00 | 0.00 | 74 | 1014.1 |
| 20260508051020 | 43 | 197 | 4.0 | 5.0 | 0.00 | 0.00 | 0.00 | 74 | 1013.9 |
| 20260508050025 | 43 | 203 | 4.0 | 6.0 | 0.00 | 0.00 | 0.00 | 74 | 1013.9 |
| 20260508045029 | 43 | 209 | 4.0 | 6.0 | 0.00 | 0.00 | 0.00 | 74 | 1013.8 |
| 20260508044016 | 43 | 197 | 3.0 | 4.0 | 0.00 | 0.00 | 0.00 | 72 | 1013.8 |
| 20260508043019 | 43 | 176 | 3.0 | 4.0 | 0.00 | 0.00 | 0.00 | 74 | 1013.9 |
| 20260508042023 | 43 | 177 | 3.0 | 4.0 | 0.00 | 0.00 | 0.00 | 74 | 1013.9 |
| 20260508041028 | 43 | 193 | 3.0 | 3.0 | 0.00 | 0.00 | 0.00 | 77 | 1013.6 |
| 20260508040032 | 42 | 126 | 0.0 | 2.0 | 0.00 | 0.00 | 0.00 | 73 | 1013.6 |
| 20260508035018 | 42 | 171 | 1.0 | 2.0 | 0.00 | 0.00 | 0.00 | 73 | 1013.6 |
| 20260508034042 | 42 | 175 | 1.0 | 2.0 | 0.00 | 0.00 | 0.00 | 72 | 1013.6 |
| 20260508033026 | 42 | 135 | 1.0 | 2.0 | 0.00 | 0.00 | 0.00 | 73 | 1013.6 |
| 20260508032031 | 42 | 145 | 1.0 | 2.0 | 0.00 | 0.00 | 0.00 | 74 | 1013.8 |
| 20260508031017 | 42 | 0.0 | 0.0 | 0.00 | 0.00 | 0.00 | 80 | 1013.9 | |
| 20260508030041 | 42 | 0.0 | 0.0 | 0.00 | 0.00 | 0.00 | 79 | 1014.1 | |
| 20260508025026 | 42 | 0.0 | 0.0 | 0.00 | 0.00 | 0.00 | 80 | 1014.0 | |
| 20260508024030 | 42 | 0.0 | 0.0 | 0.00 | 0.00 | 0.00 | 81 | 1013.9 | |
| 20260508023016 | 43 | 0.0 | 0.0 | 0.00 | 0.00 | 0.00 | 77 | 1013.9 | |
| 20260508022020 | 43 | 113 | 0.0 | 1.0 | 0.00 | 0.00 | 0.00 | 74 | 1013.9 |
| 20260508021025 | 44 | 90 | 0.0 | 1.0 | 0.00 | 0.00 | 0.00 | 73 | 1013.9 |
| 20260508020029 | 45 | 0.0 | 0.0 | 0.00 | 0.00 | 0.00 | 71 | 1013.8 | |
| 20260508015015 | 46 | 0.0 | 0.0 | 0.00 | 0.00 | 0.00 | 69 | 1013.8 | |
| 20260508014020 | 47 | 0.0 | 0.0 | 0.00 | 0.00 | 0.00 | 69 | 1013.7 | |
| 20260508013024 | 47 | 0.0 | 0.0 | 0.00 | 0.00 | 0.00 | 64 | 1013.6 | |
| 20260508012029 | 48 | 215 | 1.0 | 2.0 | 0.00 | 0.00 | 0.00 | 62 | 1013.6 |
| 20260508011015 | 48 | 239 | 1.0 | 2.0 | 0.00 | 0.00 | 0.00 | 61 | 1013.4 |
| 20260508010019 | 49 | 262 | 1.0 | 2.0 | 0.00 | 0.00 | 0.00 | 60 | 1013.4 |
| 20260508005023 | 49 | 258 | 2.0 | 4.0 | 0.00 | 0.00 | 0.00 | 60 | 1013.4 |
| 20260508004028 | 50 | 274 | 2.0 | 5.0 | 0.00 | 0.00 | 0.00 | 58 | 1013.3 |
| 20260508003026 | 50 | 236 | 2.0 | 3.0 | 0.00 | 0.00 | 0.00 | 58 | 1013.2 |
| 20260508002018 | 51 | 261 | 3.0 | 6.0 | 0.00 | 0.00 | 0.00 | 56 | 1013.1 |
| 20260508001042 | 51 | 256 | 3.0 | 5.0 | 0.00 | 0.00 | 0.00 | 55 | 1013.0 |
| 20260508000021 | 52 | 300 | 3.0 | 5.0 | 0.00 | 0.00 | 0.00 | 54 | 1013.0 |
| 20260507235019 | 52 | 261 | 5.0 | 8.0 | 0.00 | 0.00 | 0.00 | 53 | 1012.9 |
| 20260507234017 | 52 | 264 | 4.0 | 7.0 | 0.00 | 0.00 | 0.00 | 53 | 1012.9 |
| 20260507233016 | 53 | 303 | 4.0 | 7.0 | 0.00 | 0.00 | 0.00 | 52 | 1012.9 |
| 20260507232025 | 53 | 262 | 5.0 | 10.0 | 0.00 | 0.00 | 0.00 | 50 | 1012.9 |
| 20260507231030 | 55 | 255 | 5.0 | 10.0 | 0.00 | 0.00 | 0.00 | 49 | 1013.0 |
| 20260507230016 | 57 | 272 | 6.0 | 8.0 | 0.00 | 0.00 | 0.00 | 46 | 1013.0 |
| 20260507225020 | 57 | 301 | 4.0 | 6.0 | 0.00 | 0.00 | 0.00 | 47 | 1012.9 |
| 20260507224045 | 58 | 263 | 5.0 | 11.0 | 0.00 | 0.00 | 0.00 | 46 | 1012.9 |
| 20260507223029 | 58 | 253 | 5.0 | 10.0 | 0.00 | 0.00 | 0.00 | 45 | 1012.9 |
| 20260507222015 | 59 | 296 | 3.0 | 7.0 | 0.00 | 0.00 | 0.00 | 45 | 1012.9 |
| 20260507221039 | 58 | 298 | 4.0 | 7.0 | 0.00 | 0.00 | 0.00 | 47 | 1012.7 |
| 20260507220024 | 57 | 278 | 5.0 | 8.0 | 0.00 | 0.00 | 0.00 | 46 | 1012.7 |
| 20260507215028 | 57 | 244 | 6.0 | 10.0 | 0.00 | 0.00 | 0.00 | 48 | 1012.6 |
| 20260507214032 | 54 | 289 | 4.0 | 5.0 | 0.00 | 0.00 | 0.00 | 52 | 1012.6 |
| 20260507213018 | 55 | 260 | 4.0 | 6.0 | 0.00 | 0.00 | 0.00 | 51 | 1012.5 |
| 20260507212022 | 56 | 251 | 5.0 | 8.0 | 0.00 | 0.00 | 0.00 | 49 | 1012.5 |
| 20260507211027 | 56 | 354 | 4.0 | 9.0 | 0.00 | 0.00 | 0.00 | 51 | 1012.6 |
| 20260507210031 | 57 | 265 | 5.0 | 9.0 | 0.00 | 0.00 | 0.00 | 49 | 1012.4 |
| 20260507205017 | 57 | 23 | 4.0 | 6.0 | 0.00 | 0.00 | 0.00 | 50 | 1012.5 |
| 20260507204021 | 57 | 47 | 4.0 | 5.0 | 0.00 | 0.00 | 0.00 | 48 | 1012.5 |
| 20260507203026 | 56 | 272 | 5.0 | 8.0 | 0.00 | 0.00 | 0.00 | 46 | 1012.4 |
| 20260507202030 | 57 | 267 | 4.0 | 5.0 | 0.00 | 0.00 | 0.00 | 47 | 1012.4 |
| 20260507201016 | 56 | 265 | 4.0 | 6.0 | 0.00 | 0.00 | 0.00 | 47 | 1012.6 |
| 20260507200041 | 56 | 245 | 6.0 | 9.0 | 0.00 | 0.00 | 0.00 | 47 | 1012.7 |
| 20260507195025 | 57 | 342 | 6.0 | 8.0 | 0.00 | 0.00 | 0.00 | 47 | 1012.8 |
| 20260507194029 | 58 | 303 | 5.0 | 9.0 | 0.00 | 0.00 | 0.00 | 49 | 1012.9 |
| 20260507193032 | 58 | 301 | 4.0 | 5.0 | 0.00 | 0.00 | 0.00 | 47 | 1013.0 |
| 20260507192018 | 59 | 266 | 4.0 | 7.0 | 0.00 | 0.00 | 0.00 | 46 | 1012.9 |
| 20260507191022 | 60 | 278 | 4.0 | 7.0 | 0.00 | 0.00 | 0.00 | 47 | 1013.0 |
| 20260507190026 | 60 | 258 | 4.0 | 6.0 | 0.00 | 0.00 | 0.00 | 48 | 1013.0 |
| 20260507185045 | 59 | 252 | 5.0 | 8.0 | 0.00 | 0.00 | 0.00 | 48 | 1013.0 |
| 20260507184016 | 59 | 3 | 4.0 | 6.0 | 0.00 | 0.00 | 0.00 | 48 | 1013.0 |
| 20260507183021 | 60 | 324 | 4.0 | 6.0 | 0.00 | 0.00 | 0.00 | 48 | 1012.9 |
| 20260507182019 | 59 | 270 | 4.0 | 8.0 | 0.00 | 0.00 | 0.00 | 48 | 1012.9 |
| 20260507181017 | 59 | 257 | 4.0 | 6.0 | 0.00 | 0.00 | 0.00 | 48 | 1012.9 |
| 20260507180036 | 59 | 277 | 4.0 | 5.0 | 0.00 | 0.00 | 0.00 | 50 | 1013.0 |
| 20260507175020 | 58 | 313 | 4.0 | 8.0 | 0.00 | 0.00 | 0.00 | 51 | 1012.9 |
| 20260507174024 | 58 | 3 | 3.0 | 5.0 | 0.00 | 0.00 | 0.00 | 53 | 1013.0 |